KQA603 HKJK-HTKJ

Flight info

Callsign KQA603
Flight time 0h 29m
Altitude 25000
Route EVATO1Z EVATO EVATO2A
Aircraft B738/M-SDE2E3FGHIRWXY/LB1

Departure

Time 2026-05-07 11:14
Airport Jomo Kenyatta International Airport (HKJK)

Arrival

Time 2026-05-07 11:44
Airport Kilimanjaro International Airport (HTKJ)
Time Latitude Longitude Altitude Speed Heading
2026-05-07 11:05 -1.32876 36.92420 5324 ft 0 kts 156°
2026-05-07 11:08 -1.32867 36.92417 5324 ft 8 kts 156°
2026-05-07 11:08 -1.32843 36.92406 5324 ft 8 kts 155°
2026-05-07 11:08 -1.32822 36.92396 5324 ft 8 kts 166°
2026-05-07 11:09 -1.32797 36.92397 5324 ft 8 kts 211°
2026-05-07 11:09 -1.32779 36.92414 5324 ft 8 kts 243°
2026-05-07 11:09 -1.32771 36.92439 5324 ft 8 kts 261°
2026-05-07 11:09 -1.32769 36.92454 5324 ft 20 kts 261°
2026-05-07 11:11 -1.32770 36.92439 5324 ft 10 kts 270°
2026-05-07 11:11 -1.32723 36.92378 5316 ft 14 kts 323°
2026-05-07 11:12 -1.32695 36.92287 5321 ft 17 kts 242°
2026-05-07 11:12 -1.32767 36.92181 5321 ft 20 kts 233°
2026-05-07 11:12 -1.32843 36.92057 5330 ft 22 kts 265°
2026-05-07 11:12 -1.32830 36.91954 5332 ft 23 kts 281°
2026-05-07 11:13 -1.32867 36.91754 5339 ft 18 kts 271°
2026-05-07 11:13 -1.32789 36.91674 5338 ft 12 kts 332°
2026-05-07 11:13 -1.32710 36.91702 5337 ft 10 kts 56°
2026-05-07 11:13 -1.32657 36.91777 5332 ft 35 kts 54°
2026-05-07 11:14 -1.32368 36.92173 5320 ft 106 kts 53°
2026-05-07 11:14 -1.31812 36.92933 5312 ft 163 kts 53°
2026-05-07 11:14 -1.31082 36.93902 5674 ft 180 kts 53°
2026-05-07 11:14 -1.30438 36.94995 6268 ft 191 kts 81°
2026-05-07 11:15 -1.30684 36.96273 6909 ft 197 kts 125°
2026-05-07 11:15 -1.31824 36.97047 7439 ft 210 kts 168°
2026-05-07 11:15 -1.33286 36.96828 7980 ft 225 kts 208°
2026-05-07 11:15 -1.34407 36.95684 8511 ft 240 kts 236°
2026-05-07 11:16 -1.35205 36.94150 8970 ft 257 kts 244°
2026-05-07 11:16 -1.36035 36.92515 9399 ft 271 kts 232°
2026-05-07 11:16 -1.37474 36.91355 10230 ft 272 kts 208°
2026-05-07 11:16 -1.39197 36.90427 10727 ft 289 kts 206°
2026-05-07 11:17 -1.41043 36.89491 11197 ft 306 kts 206°
2026-05-07 11:17 -1.42999 36.88506 11657 ft 323 kts 206°
2026-05-07 11:17 -1.45040 36.87456 12206 ft 335 kts 207°
2026-05-07 11:17 -1.47130 36.86363 12918 ft 342 kts 207°
2026-05-07 11:18 -1.49250 36.85249 13675 ft 346 kts 207°
2026-05-07 11:18 -1.51416 36.84159 14420 ft 350 kts 205°
2026-05-07 11:18 -1.53636 36.83116 15125 ft 355 kts 204°
2026-05-07 11:18 -1.55897 36.82079 15839 ft 359 kts 204°
2026-05-07 11:19 -1.58147 36.81031 16526 ft 364 kts 205°
2026-05-07 11:19 -1.60443 36.79938 17208 ft 367 kts 205°
2026-05-07 11:19 -1.62760 36.78822 17853 ft 372 kts 205°
2026-05-07 11:19 -1.65103 36.77698 18490 ft 376 kts 205°
2026-05-07 11:20 -1.67479 36.76565 19119 ft 380 kts 205°
2026-05-07 11:20 -1.69877 36.75427 19739 ft 383 kts 205°
2026-05-07 11:20 -1.72296 36.74279 20341 ft 386 kts 205°
2026-05-07 11:20 -1.74735 36.73119 20928 ft 389 kts 205°
2026-05-07 11:21 -1.77192 36.71947 21487 ft 393 kts 205°
2026-05-07 11:21 -1.79668 36.70767 22030 ft 396 kts 205°
2026-05-07 11:21 -1.82163 36.69578 22558 ft 399 kts 205°
2026-05-07 11:21 -1.84677 36.68382 23065 ft 401 kts 205°
2026-05-07 11:22 -1.87207 36.67177 23561 ft 404 kts 205°
2026-05-07 11:22 -1.89751 36.65966 24032 ft 407 kts 205°
2026-05-07 11:22 -1.92308 36.64748 24615 ft 405 kts 205°
2026-05-07 11:22 -1.94850 36.63537 25154 ft 406 kts 205°
2026-05-07 11:23 -1.97418 36.62314 25200 ft 410 kts 205°
2026-05-07 11:23 -1.99944 36.61111 25209 ft 406 kts 205°
2026-05-07 11:23 -2.02481 36.59902 25220 ft 404 kts 205°
2026-05-07 11:23 -2.05019 36.58693 25223 ft 403 kts 205°
2026-05-07 11:24 -2.07552 36.57487 25225 ft 403 kts 205°
2026-05-07 11:24 -2.10086 36.56279 25226 ft 403 kts 205°
2026-05-07 11:24 -2.12615 36.55075 25225 ft 403 kts 205°
2026-05-07 11:24 -2.15143 36.53870 25220 ft 402 kts 205°
2026-05-07 11:25 -2.17667 36.52668 25218 ft 402 kts 205°
2026-05-07 11:25 -2.20191 36.51465 25217 ft 402 kts 205°
2026-05-07 11:25 -2.22714 36.50263 25216 ft 402 kts 205°
2026-05-07 11:25 -2.25239 36.49060 25216 ft 402 kts 205°
2026-05-07 11:26 -2.27760 36.47859 25216 ft 402 kts 205°
2026-05-07 11:26 -2.30288 36.46660 25212 ft 402 kts 203°
2026-05-07 11:26 -2.32939 36.45791 25213 ft 401 kts 192°
2026-05-07 11:26 -2.35709 36.45488 25212 ft 401 kts 179°
2026-05-07 11:27 -2.38485 36.45726 25216 ft 401 kts 173°
2026-05-07 11:27 -2.41257 36.46094 25213 ft 401 kts 172°
2026-05-07 11:27 -2.44015 36.46493 25210 ft 401 kts 171°
2026-05-07 11:27 -2.46740 36.46888 25209 ft 401 kts 172°
2026-05-07 11:28 -2.49539 36.47279 25210 ft 401 kts 172°
2026-05-07 11:28 -2.52270 36.47646 25209 ft 401 kts 172°
2026-05-07 11:28 -2.55034 36.48016 25208 ft 401 kts 172°
2026-05-07 11:28 -2.57802 36.48391 25208 ft 401 kts 172°
2026-05-07 11:29 -2.60562 36.48770 25208 ft 401 kts 172°
2026-05-07 11:29 -2.63329 36.49153 25209 ft 401 kts 172°
2026-05-07 11:29 -2.66095 36.49533 25203 ft 401 kts 172°
2026-05-07 11:29 -2.68859 36.49911 25200 ft 401 kts 172°
2026-05-07 11:30 -2.71628 36.50289 25199 ft 401 kts 172°
2026-05-07 11:30 -2.74398 36.50667 24912 ft 404 kts 172°
2026-05-07 11:30 -2.77194 36.51050 24300 ft 406 kts 172°
2026-05-07 11:30 -2.80001 36.51435 23725 ft 407 kts 172°
2026-05-07 11:31 -2.82812 36.51821 23148 ft 408 kts 172°
2026-05-07 11:31 -2.85626 36.52206 22567 ft 405 kts 172°
2026-05-07 11:31 -2.88394 36.52584 21993 ft 398 kts 172°
2026-05-07 11:31 -2.91123 36.52958 21419 ft 392 kts 172°
2026-05-07 11:32 -2.96451 36.53688 20292 ft 381 kts 172°
2026-05-07 11:32 -2.99059 36.54045 19729 ft 375 kts 172°
2026-05-07 11:32 -3.01630 36.54398 19172 ft 370 kts 172°
2026-05-07 11:33 -3.04167 36.54745 18616 ft 365 kts 172°
2026-05-07 11:33 -3.06663 36.55087 18064 ft 360 kts 172°
2026-05-07 11:33 -3.09128 36.55425 17518 ft 355 kts 172°
2026-05-07 11:33 -3.11529 36.55754 16974 ft 350 kts 172°
2026-05-07 11:34 -3.13924 36.56082 16434 ft 345 kts 172°
2026-05-07 11:34 -3.16289 36.56406 15895 ft 340 kts 172°
2026-05-07 11:34 -3.18620 36.56726 15362 ft 335 kts 172°
2026-05-07 11:34 -3.20856 36.57289 14834 ft 329 kts 158°
2026-05-07 11:35 -3.22846 36.58374 14323 ft 323 kts 147°
2026-05-07 11:35 -3.24699 36.59620 13783 ft 319 kts 145°
2026-05-07 11:35 -3.26504 36.60879 13257 ft 314 kts 144°
2026-05-07 11:35 -3.28278 36.62129 12725 ft 310 kts 145°
2026-05-07 11:36 -3.30032 36.63356 12212 ft 305 kts 145°
2026-05-07 11:36 -3.31768 36.64559 11663 ft 302 kts 146°
2026-05-07 11:36 -3.33489 36.65746 11138 ft 299 kts 146°
2026-05-07 11:36 -3.35187 36.66919 10625 ft 295 kts 145°
2026-05-07 11:37 -3.36860 36.68077 10287 ft 286 kts 145°
2026-05-07 11:37 -3.38468 36.69192 10189 ft 278 kts 145°
2026-05-07 11:37 -3.40058 36.70294 10011 ft 281 kts 145°
2026-05-07 11:37 -3.41670 36.71411 9688 ft 282 kts 145°
2026-05-07 11:38 -3.43135 36.72671 9383 ft 277 kts 129°
2026-05-07 11:38 -3.44070 36.74338 8962 ft 276 kts 110°
2026-05-07 11:38 -3.44329 36.76293 8025 ft 292 kts 90°
2026-05-07 11:38 -3.44235 36.78181 7802 ft 279 kts 88°
2026-05-07 11:39 -3.44129 36.80068 7619 ft 263 kts 88°
2026-05-07 11:39 -3.44050 36.81815 7205 ft 249 kts 89°
2026-05-07 11:39 -3.43978 36.83531 6629 ft 245 kts 89°
2026-05-07 11:39 -3.43906 36.85221 6063 ft 241 kts 89°
2026-05-07 11:40 -3.43835 36.86845 5801 ft 226 kts 89°
2026-05-07 11:40 -3.43768 36.88398 5406 ft 221 kts 88°
2026-05-07 11:40 -3.43702 36.89923 5092 ft 217 kts 88°
2026-05-07 11:40 -3.43636 36.91446 5065 ft 219 kts 88°
2026-05-07 11:41 -3.43571 36.92926 5045 ft 205 kts 88°
2026-05-07 11:41 -3.43511 36.94302 5030 ft 192 kts 88°
2026-05-07 11:41 -3.43454 36.95627 4917 ft 190 kts 88°
2026-05-07 11:41 -3.43400 36.96870 4717 ft 169 kts 87°
2026-05-07 11:42 -3.43351 36.98013 4499 ft 160 kts 88°
2026-05-07 11:42 -3.43305 36.99095 4299 ft 152 kts 87°
2026-05-07 11:42 -3.43260 37.00140 4102 ft 149 kts 87°
2026-05-07 11:42 -3.43215 37.01164 3894 ft 146 kts 87°
2026-05-07 11:43 -3.43171 37.02178 3713 ft 146 kts 87°
2026-05-07 11:43 -3.43127 37.03191 3528 ft 145 kts 87°
2026-05-07 11:43 -3.43083 37.04185 3322 ft 144 kts 87°
2026-05-07 11:43 -3.43038 37.05184 3132 ft 143 kts 86°
2026-05-07 11:44 -3.43000 37.06156 2938 ft 133 kts 88°
2026-05-07 11:44 -3.42969 37.06836 2937 ft 48 kts 89°
2026-05-07 11:44 -3.42965 37.07041 2936 ft 19 kts 85°
2026-05-07 11:44 -3.42900 37.07098 2935 ft 16 kts 306°